sat.trackr.live / text

‹ back to catalog

STARLINK-36473

NORAD 67325 · 2026-002W

PAYLOAD ACTIVE UNKNOWN

§ Identity

Operator
Country
US
Launch date
2026-01-04
Launch site
AFETR
Launch vehicle
Mass (kg)
RCS (m²)

Purposes: comms

External: N2YO · Heavens-Above · Gunter

§ Orbital elements

Epoch: 2026-09-19T04:33:20.215584Z

Period
94.27 min
Inclination
42.9987°
Eccentricity
0.0000852
Mean motion
15.27589204 rev/d
Perigee alt
482.4 km
Apogee alt
483.6 km
Semi-major
6,861.2 km
B*
4.1887e-4
RAAN
312.3527°
Arg perigee
181.5035°
Mean anomaly
178.5814°
Rev number
4,083

§ Raw data

STARLINK-364731 67325U 26002W   26262.18981731  .00011285  00000+0  41887-3 0  99962 67325  42.9987 312.3527 0000852 181.5035 178.5814 15.27589204 40837

JSON: /api/v1/satellites/67325 · /tle

For live sub-satellite position, see the globe view (requires WebGL).

§ Visibility from observer

Set your observer location to see the next 7 days of passes ≥ 10°. The values pass through the URL so the page stays shareable.

No JS? Fill the form by hand. The geolocation button needs JavaScript.